Weather History for KSPD - April, 2013

Change the Weather History Date:

Monday, April 22, 2013

  Actual Average Record
Temperature  
Mean Temperature 51 °F -  
Max Temperature 75 °F 69 °F 88 °F (2006)
Min Temperature 27 °F 38 °F 27 °F (2013)
Degree Days  
Heating Degree Days 14 12  
Month to date heating degree days 446 324  
Since 1 July heating degree days 4904 5017  
Cooling Degree Days 0 0  
Month to date cooling degree days 0 0  
Year to date cooling degree days 0 0  
Moisture  
Dew Point 29 °F    
Average Humidity 53    
Maximum Humidity 89    
Minimum Humidity 17    
Precipitation  
Precipitation 0.00 in 0.04 in 0.42 in (2004)
Month to date precipitation 0.30 0.93  
Year to date precipitation 0.60 2.87  
Sea Level Pressure  
Sea Level Pressure 29.86 in    
Wind  
Wind Speed 20 mph (NNE)    
Max Wind Speed 49 mph    
Max Gust Speed 69 mph    
T = Trace of Precipitation, MM = Missing Value Source: NWS Daily Summary

Daily Weather History Graph

Daily Weather History Graph

Search for Another Location

Airport or City:

Trip Planner

Search our weather history database for the weather conditions in past years. The results will help you decide how hot, cold, wet, or windy it might be!

Date:

Astronomy

Apr. 22, 2013 Rise Set
Actual Time 6:06 AM MDT 7:32 PM MDT
Civil Twilight 5:38 AM MDT 7:59 PM MDT
Nautical Twilight 5:06 AM MDT 8:32 PM MDT
Astronomical Twilight 4:31 AM MDT 9:07 PM MDT
Moon 4:27 PM MDT (4/22) 3:57 AM MDT (4/22)
Length of Visible Light 14h 20m
Length of Day
13h 25m
Waxing Gibbous, 88% of the Moon is Illuminated
Apr 22
Waxing Gibbous
Apr 25
Full
May 2
Last Quarter
May 9
New
May 17
First Quarter

Hourly Weather History & Observations

Time (MDT) Temp. Windchill Dew Point Humidity Pressure Visibility Wind Dir Wind Speed Gust Speed Precip Events Conditions
12:56 AM 48.0 °F - 34.0 °F 58% 29.87 in - SE 9.2 mph - N/A   Unknown
1:56 AM 45.0 °F 40.6 °F 35.1 °F 68% 29.84 in - SE 8.1 mph - N/A   Unknown
2:56 AM 43.0 °F 38.8 °F 36.0 °F 76% 29.82 in - SE 6.9 mph - N/A   Unknown
3:56 AM 39.0 °F 35.7 °F 34.0 °F 82% 29.80 in - SSE 4.6 mph - N/A   Unknown
4:56 AM 35.1 °F 29.3 °F 32.0 °F 89% 29.79 in - West 6.9 mph - N/A   Unknown
5:56 AM 34.0 °F 28.0 °F 30.9 °F 89% 29.79 in - West 6.9 mph - N/A   Unknown
6:56 AM 39.9 °F 35.8 °F 33.1 °F 77% 29.78 in - WNW 5.8 mph - N/A   Unknown
7:56 AM 59.0 °F - 30.9 °F 35% 29.74 in - West 11.5 mph - N/A   Unknown
8:56 AM 66.0 °F - 25.0 °F 21% 29.73 in - WNW 13.8 mph 23.0 mph N/A   Unknown
9:56 AM 70.0 °F - 26.1 °F 19% 29.73 in - NNW 17.3 mph 24.2 mph N/A   Unknown
11:56 AM 72.0 °F - 27.0 °F 19% 29.74 in - North 15.0 mph 24.2 mph N/A   Unknown
12:56 PM 73.0 °F - 26.1 °F 17% 29.72 in - North 16.1 mph - N/A   Unknown
1:56 PM 73.0 °F - 28.0 °F 19% 29.72 in - NE 15.0 mph 23.0 mph N/A   Unknown
2:56 PM 72.0 °F - 28.0 °F 20% 29.71 in - NE 18.4 mph 28.8 mph N/A   Unknown
3:56 PM 66.9 °F - 30.9 °F 26% 29.75 in - East 24.2 mph 35.7 mph N/A   Unknown
4:56 PM 50.0 °F - 37.0 °F 61% 29.87 in - NE 38.0 mph 51.8 mph N/A   Unknown
5:56 PM 39.9 °F 28.0 °F 32.0 °F 73% 29.96 in - NE 32.2 mph 44.9 mph N/A   Unknown
6:56 PM 36.0 °F 22.2 °F 28.0 °F 73% 30.01 in - NNE 34.5 mph 40.3 mph N/A   Unknown
7:56 PM 33.1 °F 18.7 °F 25.0 °F 72% 30.03 in - NNE 32.2 mph 40.3 mph N/A   Unknown
8:56 PM 32.0 °F 16.7 °F 24.1 °F 73% 30.04 in - NNE 34.5 mph 40.3 mph N/A   Unknown
9:56 PM 30.0 °F 14.5 °F 21.0 °F 69% 30.09 in - NNE 32.2 mph 40.3 mph N/A   Unknown
10:56 PM 28.9 °F 13.5 °F 19.9 °F 69% 30.09 in - NNE 29.9 mph 40.3 mph N/A   Unknown
11:56 PM 28.0 °F 11.1 °F 21.0 °F 75% 30.08 in - NNE 35.7 mph 39.1 mph N/A   Unknown